Beaver Falls, PA

4:21 PM EST on November 16, 2019 (GMT -0500)
Beaver County

Weather History for KBVI - September, 2019

Change the Weather History Date:

Thursday, September 19, 2019

  Actual Average Record
Temperature  
Mean Temperature 64 °F -  
Max Temperature 78 °F 70 °F 84 °F (2002)
Min Temperature 51 °F 53 °F 42 °F (2012)
Growing Degree Days 14 (Base 50)    
Moisture  
Dew Point 47 °F    
Average Humidity 53    
Maximum Humidity 76    
Minimum Humidity 33    
Precipitation  
Precipitation 0.00 in - - ()
Sea Level Pressure  
Sea Level Pressure 30.24 in    
Wind  
Wind Speed 5 mph (ESE)    
Max Wind Speed 12 mph    
Max Gust Speed -    
Visibility 10 miles    
Events      
Averages and records for this station are not official NWS values.
T = Trace of Precipitation, MM = Missing Value Source: NWS Daily Summary

Daily Weather History Graph

Daily Weather History Graph

Search for Another Location

Airport or City:

Astronomy

Sep. 19, 2019 Rise Set
Actual Time 7:05 AM EDT 7:24 PM EDT
Civil Twilight 6:38 AM EDT 7:51 PM EDT
Nautical Twilight 6:06 AM EDT 8:23 PM EDT
Astronomical Twilight 5:33 AM EDT 8:56 PM EDT
Moon 10:30 PM EDT (9/19) 12:09 PM EDT (9/19)
Length of Visible Light 13h 13m
Length of Day
12h 18m
Waning Gibbous, 74% of the Moon is Illuminated
Sep 19
Waning Gibbous
Sep 21
Last Quarter
Sep 28
New
Oct 5
First Quarter
Oct 13
Full

Hourly Weather History & Observations

Time (EDT) Temp. Dew Point Humidity Pressure Visibility Wind Dir Wind Speed Gust Speed Precip Events Conditions
12:16 AM 59.7 °F 43.3 °F 55% 30.23 in 10.0 mi East 3.5 mph - N/A   Clear
12:35 AM 59.2 °F 43.3 °F 56% 30.24 in 10.0 mi ESE 3.5 mph - N/A   Clear
12:55 AM 59.2 °F 43.5 °F 56% 30.24 in 10.0 mi East 4.6 mph - N/A   Clear
1:15 AM 58.3 °F 44.1 °F 59% 30.24 in 10.0 mi East 3.5 mph - N/A   Clear
1:16 AM 58.1 °F 44.1 °F 60% 30.24 in 10.0 mi East 3.5 mph - N/A   Clear
1:35 AM 57.2 °F 44.4 °F 62% 30.25 in 10.0 mi ENE 3.5 mph - N/A   Clear
1:55 AM 57.0 °F 44.4 °F 63% 30.24 in 10.0 mi East 4.6 mph - N/A   Clear
2:15 AM 56.8 °F 44.4 °F 63% 30.25 in 10.0 mi East 3.5 mph - N/A   Clear
2:35 AM 57.0 °F 44.1 °F 62% 30.25 in 10.0 mi East 4.6 mph - N/A   Clear
2:36 AM 57.0 °F 44.1 °F 62% 30.25 in 10.0 mi East 3.5 mph - N/A   Clear
2:55 AM 56.8 °F 44.1 °F 62% 30.25 in 10.0 mi East 4.6 mph - N/A   Clear
3:15 AM 56.3 °F 44.2 °F 64% 30.24 in 10.0 mi ESE 4.6 mph - N/A   Clear
3:16 AM 56.3 °F 44.2 °F 64% 30.24 in 10.0 mi ESE 3.5 mph - N/A   Clear
3:35 AM 56.3 °F 44.1 °F 64% 30.24 in 10.0 mi East 4.6 mph - N/A   Clear
3:36 AM 56.3 °F 44.1 °F 64% 30.24 in 10.0 mi ESE 5.8 mph - N/A   Clear
3:55 AM 56.1 °F 44.1 °F 64% 30.24 in 10.0 mi East 4.6 mph - N/A   Clear
4:15 AM 55.8 °F 44.1 °F 65% 30.24 in 10.0 mi East 4.6 mph - N/A   Clear
4:16 AM 55.8 °F 44.1 °F 65% 30.24 in 10.0 mi East 3.5 mph - N/A   Clear
4:35 AM 55.4 °F 43.9 °F 65% 30.24 in 10.0 mi ESE 4.6 mph - N/A   Clear
4:55 AM 54.9 °F 43.7 °F 66% 30.24 in 10.0 mi East 5.8 mph - N/A   Clear
5:15 AM 54.7 °F 43.9 °F 67% 30.24 in 10.0 mi East 3.5 mph - N/A   Clear
5:16 AM 54.7 °F 43.9 °F 67% 30.24 in 10.0 mi East 3.5 mph - N/A   Clear
5:35 AM 54.1 °F 43.9 °F 68% 30.24 in 10.0 mi ESE 4.6 mph - N/A   Clear
5:36 AM 54.1 °F 43.9 °F 68% 30.24 in 10.0 mi ESE 4.6 mph - N/A   Clear
5:55 AM 53.6 °F 43.9 °F 70% 30.23 in 10.0 mi ESE 4.6 mph - N/A   Clear
6:15 AM 52.9 °F 43.9 °F 71% 30.24 in 10.0 mi ESE 3.5 mph - N/A   Clear
6:35 AM 52.7 °F 43.9 °F 72% 30.24 in 10.0 mi East 3.5 mph - N/A   Clear
6:36 AM 52.7 °F 43.9 °F 72% 30.24 in 10.0 mi East 3.5 mph - N/A   Clear
6:47 AM 51.8 °F 44.6 °F 76% 30.25 in 10.0 mi Calm Calm - N/A   Clear
6:55 AM 52.7 °F 43.9 °F 72% 30.25 in 10.0 mi East 3.5 mph - N/A   Clear
7:15 AM 52.5 °F 44.1 °F 73% 30.25 in 10.0 mi East 3.5 mph - N/A   Clear
7:35 AM 52.9 °F 44.6 °F 73% 30.26 in 10.0 mi East 4.6 mph - N/A   Clear
7:36 AM 52.9 °F 44.6 °F 73% 30.26 in 10.0 mi East 4.6 mph - N/A   Clear
7:47 AM 53.6 °F 44.6 °F 72% 30.26 in 10.0 mi ESE 4.6 mph - N/A   Clear
7:55 AM 54.5 °F 44.8 °F 70% 30.26 in 10.0 mi ESE 5.8 mph - N/A   Clear
8:15 AM 55.9 °F 45.5 °F 68% 30.27 in 10.0 mi SE 4.6 mph - N/A   Clear
8:16 AM 56.1 °F 45.5 °F 68% 30.27 in 10.0 mi SE 4.6 mph - N/A   Clear
8:35 AM 57.4 °F 46.2 °F 66% 30.27 in 10.0 mi ESE 5.8 mph - N/A   Clear
8:36 AM 57.4 °F 46.4 °F 67% 30.27 in 10.0 mi ESE 4.6 mph - N/A   Clear
8:47 AM 59.0 °F 46.4 °F 63% 30.27 in 10.0 mi ESE 5.8 mph - N/A   Clear
8:55 AM 59.0 °F 46.8 °F 64% 30.27 in 10.0 mi ESE 6.9 mph - N/A   Clear
9:15 AM 60.6 °F 47.3 °F 61% 30.27 in 10.0 mi SE 9.2 mph - N/A   Clear
9:35 AM 62.6 °F 48.0 °F 59% 30.27 in 10.0 mi SE 6.9 mph - N/A   Clear
9:36 AM 62.6 °F 48.0 °F 59% 30.27 in 10.0 mi SE 5.8 mph - N/A   Clear
9:47 AM 64.4 °F 48.2 °F 56% 30.27 in 10.0 mi SE 10.4 mph - N/A   Clear
9:55 AM 64.2 °F 48.6 °F 57% 30.27 in 10.0 mi SE 9.2 mph - N/A   Clear
10:15 AM 66.0 °F 48.6 °F 53% 30.27 in 10.0 mi SSE 11.5 mph - N/A   Clear
10:35 AM 67.6 °F 49.5 °F 52% 30.27 in 10.0 mi SE 8.1 mph - N/A   Clear
10:36 AM 67.8 °F 49.5 °F 52% 30.27 in 10.0 mi SSE 10.4 mph - N/A   Clear
10:47 AM 69.8 °F 50.0 °F 49% 30.27 in 10.0 mi SSE 8.1 mph - N/A   Clear
10:55 AM 69.4 °F 49.5 °F 49% 30.27 in 10.0 mi SE 10.4 mph - N/A   Clear
11:15 AM 69.6 °F 49.1 °F 48% 30.27 in 10.0 mi SE 10.4 mph - N/A   Clear
11:35 AM 70.9 °F 49.3 °F 46% 30.27 in 10.0 mi SSE 6.9 mph - N/A   Clear
11:36 AM 71.2 °F 49.5 °F 46% 30.27 in 10.0 mi SSE 8.1 mph - N/A   Clear
11:47 AM 71.6 °F 50.0 °F 46% 30.27 in 10.0 mi SSE 8.1 mph - N/A   Clear
11:55 AM 72.5 °F 49.6 °F 44% 30.27 in 10.0 mi SSE 5.8 mph - N/A   Clear
12:15 PM 72.9 °F 49.8 °F 44% 30.27 in 10.0 mi SSE 9.2 mph - N/A   Clear
12:35 PM 74.5 °F 50.2 °F 42% 30.26 in 10.0 mi SE 5.8 mph - N/A   Clear
12:47 PM 75.2 °F 50.0 °F 41% 30.26 in 10.0 mi ESE 6.9 mph - N/A   Clear
12:55 PM 74.5 °F 49.5 °F 41% 30.26 in 10.0 mi SSE 8.1 mph - N/A   Clear
1:15 PM 75.7 °F 50.4 °F 41% 30.26 in 10.0 mi ESE 5.8 mph - N/A   Clear
1:35 PM 75.9 °F 49.3 °F 39% 30.24 in 10.0 mi ESE 6.9 mph - N/A   Clear
1:47 PM 75.2 °F 48.2 °F 38% 30.25 in 10.0 mi SSE 5.8 mph - N/A   Clear
1:55 PM 76.5 °F 49.8 °F 39% 30.24 in 10.0 mi South 5.8 mph - N/A   Clear
2:15 PM 76.1 °F 48.9 °F 38% 30.24 in 10.0 mi SE 8.1 mph - N/A   Clear
2:35 PM 77.0 °F 49.1 °F 37% 30.23 in 10.0 mi SE 8.1 mph - N/A   Clear
2:47 PM 78.8 °F 48.2 °F 34% 30.23 in 10.0 mi SE 5.8 mph - N/A   Clear
2:55 PM 77.0 °F 48.9 °F 37% 30.23 in 10.0 mi ESE 5.8 mph - N/A   Clear
2:56 PM 77.0 °F 48.7 °F 37% 30.23 in 10.0 mi SE 5.8 mph - N/A   Clear
3:15 PM 77.0 °F 48.4 °F 36% 30.23 in 10.0 mi ESE 4.6 mph - N/A   Clear
3:35 PM 77.2 °F 47.3 °F 35% 30.22 in 10.0 mi ESE 3.5 mph - N/A   Clear
3:47 PM 77.0 °F 48.2 °F 36% 30.22 in 10.0 mi ESE 8.1 mph - N/A   Clear
3:55 PM 77.2 °F 46.6 °F 34% 30.22 in 10.0 mi ESE 6.9 mph - N/A   Clear
3:56 PM 77.2 °F 46.8 °F 34% 30.22 in 10.0 mi ESE 6.9 mph - N/A   Clear
4:15 PM 76.6 °F 47.7 °F 36% 30.22 in 10.0 mi SE 4.6 mph - N/A   Clear
4:16 PM 76.8 °F 47.5 °F 35% 30.22 in 10.0 mi SE 4.6 mph - N/A   Clear
4:35 PM 77.5 °F 46.6 °F 33% 30.22 in 10.0 mi SE 4.6 mph - N/A   Clear
4:47 PM 77.0 °F 46.4 °F 34% 30.22 in 10.0 mi SE 8.1 mph - N/A   Clear
4:55 PM 76.5 °F 46.0 °F 34% 30.22 in 10.0 mi SE 3.5 mph - N/A   Clear
4:56 PM 76.3 °F 46.0 °F 34% 30.22 in 10.0 mi SE 3.5 mph - N/A   Clear
5:15 PM 76.8 °F 46.6 °F 34% 30.21 in 10.0 mi ESE 3.5 mph - N/A   Clear
5:55 PM 74.5 °F 44.6 °F 34% 30.21 in 10.0 mi SE 8.1 mph - N/A   Clear
5:56 PM 74.3 °F 44.6 °F 35% 30.21 in 10.0 mi SE 8.1 mph - N/A   Clear
6:15 PM 73.4 °F 45.3 °F 37% 30.20 in 10.0 mi SE 8.1 mph - N/A   Clear
6:35 PM 72.5 °F 45.9 °F 39% 30.20 in 10.0 mi SE 6.9 mph - N/A   Clear
6:36 PM 72.3 °F 45.9 °F 39% 30.20 in 10.0 mi SE 5.8 mph - N/A   Clear
6:47 PM 71.6 °F 46.4 °F 41% 30.20 in 10.0 mi SE 5.8 mph - N/A   Clear
6:55 PM 71.2 °F 47.5 °F 43% 30.20 in 10.0 mi ESE 3.5 mph - N/A   Clear
7:15 PM 70.2 °F 48.4 °F 46% 30.20 in 10.0 mi ESE 4.6 mph - N/A   Clear
7:16 PM 70.0 °F 48.4 °F 46% 30.20 in 10.0 mi ESE 4.6 mph - N/A   Clear
7:35 PM 69.1 °F 49.1 °F 49% 30.20 in 10.0 mi ESE 3.5 mph - N/A   Clear
7:55 PM 68.4 °F 48.9 °F 50% 30.20 in 10.0 mi ESE 3.5 mph - N/A   Clear
7:56 PM 68.4 °F 48.9 °F 50% 30.20 in 10.0 mi ESE 3.5 mph - N/A   Clear
8:15 PM 68.0 °F 48.7 °F 50% 30.21 in 10.0 mi Calm Calm - N/A   Clear
8:35 PM 67.1 °F 49.1 °F 52% 30.21 in 10.0 mi ESE 3.5 mph - N/A   Clear
8:55 PM 66.9 °F 48.7 °F 52% 30.21 in 10.0 mi ESE 4.6 mph - N/A   Clear
8:56 PM 66.9 °F 48.7 °F 52% 30.21 in 10.0 mi ESE 4.6 mph - N/A   Clear
9:15 PM 66.2 °F 48.6 °F 53% 30.21 in 10.0 mi ESE 4.6 mph - N/A   Clear
9:35 PM 65.5 °F 48.6 °F 54% 30.21 in 10.0 mi ESE 4.6 mph - N/A   Clear
9:36 PM 65.5 °F 48.6 °F 54% 30.21 in 10.0 mi ESE 4.6 mph - N/A   Clear
9:55 PM 65.5 °F 48.6 °F 54% 30.22 in 10.0 mi East 4.6 mph - N/A   Clear
9:56 PM 65.5 °F 48.6 °F 54% 30.22 in 10.0 mi East 3.5 mph - N/A   Clear
10:15 PM 65.1 °F 48.7 °F 55% 30.21 in 10.0 mi ESE 5.8 mph - N/A   Clear
10:35 PM 64.4 °F 49.1 °F 58% 30.22 in 10.0 mi ESE 4.6 mph - N/A   Clear
10:55 PM 63.7 °F 49.1 °F 59% 30.22 in 10.0 mi ESE 4.6 mph - N/A   Clear
11:15 PM 62.6 °F 49.1 °F 61% 30.21 in 10.0 mi ESE 4.6 mph - N/A   Clear
11:35 PM 61.7 °F 49.3 °F 64% 30.21 in 10.0 mi ESE 3.5 mph - N/A   Clear
11:55 PM 60.8 °F 49.5 °F 66% 30.21 in 10.0 mi SE 3.5 mph - N/A   Clear
11:56 PM 60.8 °F 49.5 °F 66% 30.21 in 10.0 mi SE 3.5 mph - N/A   Clear